Regional Weather Roundup
Issued by NWS Northern Indiana

Home | Current Version | Previous Version | Graphics & Text | Print | Product List | Glossary On
Versions: 1 2 3 4 5 6 7 8 9 10 11 12 13 14 15 16 17 18 19 20 21 22 23 24 25 26 27 28 29 30 31 32 33 34 35 36 37 38 39 40 41 42 43 44 45 46 47 48 49 50
000
ASUS43 KIWX 020500
RWRIWX

KIWX WEATHER ROUNDUP
NATIONAL WEATHER SERVICE NORTHERN INDIANA
100 AM EDT SUN AUG 02 2015

NOTE: "FAIR" INDICATES FEW OR NO CLOUDS BELOW 12,000 FEET WITH NO
SIGNIFICANT WEATHER AND/OR OBSTRUCTIONS TO VISIBILITY.

* THESE STATIONS ARE NOT UNDER NWS QUALITY CONTROL. THEY ALSO MAY NOT
  REPORT WEATHER SUCH AS PRECIPITATION OR FOG.

INZ001>027-020600-
NORTHERN INDIANA

CITY           SKY/WX    TMP DP  RH WIND       PRES   REMARKS
SOUTH BEND     PTCLDY    72  62  71 SW10      29.91S
GOSHEN         PTCLDY    70  62  76 SW9       29.91S
ANGOLA*        PTCLDY    66  61  82 SW3       29.92S
FORT WAYNE     MOCLDY    67  61  81 SW9       29.94F

$$
INZ028>050-020600-
CENTRAL INDIANA

CITY           SKY/WX    TMP DP  RH WIND       PRES   REMARKS
LAFAYETTE      PTCLDY    67  63  87 SW5       29.95S
KOKOMO*        PTCLDY    70  59  68 SW8       29.96S
MUNCIE*        CLEAR     69  58  67 SW7       29.97S
INDIANAPOLIS   PTCLDY    67  58  72 SW6       29.97S

$$
MIZ043>046-050>051-056>058-064>065-071>073-077>080-020600-
SOUTHWEST LOWER MICHIGAN

CITY           SKY/WX    TMP DP  RH WIND       PRES   REMARKS
BATTLE CREEK   MOCLDY    67  59  75 CALM      29.90F
BENTON HARBOR  CLEAR     67  62  84 CALM      29.88F
COLDWATER*     PTCLDY    64  60  88 CALM      29.91S
HILLSDALE*     PTCLDY    63  61  94 CALM      29.93R
HOLLAND        CLEAR     65  57  75 CALM      29.88S
GRAND RAPIDS   CLEAR     63  56  78 CALM      29.88F
KALAMAZOO      MOCLDY    70  59  68 S3        29.90F
STURGIS*       PTCLDY    66  61  82 CALM      29.91S
THREE RIVERS*  FAIR      65  62  89 SW5       29.90F

$$
OHZ001>008-015>018-024>025-020600-
NORTHWEST OHIO

CITY           SKY/WX    TMP DP  RH WIND       PRES   REMARKS
DEFIANCE       PTCLDY    73  59  61 SW6       29.92S
FINDLAY        CLOUDY    67  59  75 SW7       29.93S
TOLEDO EXPRESS CLOUDY    67  57  70 CALM      29.91S
TOLEDO METCALF MOCLDY    69  57  65 SW5       29.92S
LIMA           MOCLDY    70  58  65 SW7       29.96S

$$
AND FOR LAKE MICHIGAN COASTAL AND OPEN LAKE BUOY OBSERVATIONS

STATION/POSITION TEMP    WIND        PRES    VSBY  WAVE
                 AIR SEA DIR/SP/G                  HT/PER
                 (F)     (DEG/KT/KT) (MB)    (MI)  (FT/S)
CALUMET HARBOR    78     240/  6/  9   N/A
MICHIGAN CITY     75     190/ 12/ 14   N/A
BURNS HARBOR      76     220/  9/ 14 1012.9F
SAINT JOSEPH      76     210/  7/ 10 1012.5F
4 MI NW BRIDGMAN  75 73  260/ 14/ 16   N/A           2/ 3
MICHIGAN CITY     76 74  240/ 14/ 17   N/A           2/ 2

$$
&&


USA.gov is the U.S. government's official web portal to all federal, state and local government web resources and services.